This demonstration page uses our WeatherBlox Daily Observations layout. Learn more.

Left ArrowRight Arrow

Hourly Observations for April 16, 2015

Temp ( °F °C ) Dew Point ( °F °C ) Humidity (%) Winds ( mph kmh ) Pressure ( in mb ) Visibility ( mi km ) Precip ( " mm )
12:29 am 00:29 Cloudy with Haze 55 12.8 49 9.4 80 80 SE 9 15 30.00 1016 5 8 0.00 0.00
12:36 am 00:36 Cloudy with Haze 55 13 48 9 77 77 ESE 9 15 30.00 1016 5 8 0.00 0.00
12:53 am 00:53 Cloudy with Haze 54 12.2 49 9.4 83 83 ESE 12 19 29.98 1015 5 8 0.00 0.00
1:07 am 01:07 Cloudy with Haze 54 12.2 49 9.4 83 83 ESE 10 17 30.00 1016 5 8 0.00 0.00
1:53 am 01:53 Cloudy with Mist and Fog 53 11.7 49 9.4 86 86 E 8 13 29.99 1016 6 10 0.00 0.00
2:29 am 02:29 Cloudy with Mist and Fog 53 11.7 50 10 89 89 ESE 7 11 30.00 1016 6 10 0.00 0.00
2:53 am 02:53 Cloudy with Mist and Fog 53 11.7 50 10 89 89 ESE 10 17 29.99 1016 6 10 0.00 0.00
3:21 am 03:21 Cloudy with Light Rain 53 11.7 50 10 89 89 ESE 10 17 30.00 1016 3 5 0.00 0.03
3:53 am 03:53 Cloudy with Mist and Fog 52 11.1 50 10 93 93 SE 14 22 29.96 1015 3 5 0.00 0.03
4:53 am 04:53 Cloudy with Light Rain 52 11.1 51 10.6 97 97 SE 15 24 29.96 1015 4 6 0.01 0.25
5:53 am 05:53 Cloudy with Light Rain 52 11.1 51 10.6 97 97 SSE 12 19 29.97 1015 4 6 0.02 0.51
6:15 am 06:15 Cloudy with Mist and Fog 52 11.1 50 10 93 93 SE 16 26 29.97 1015 4 6 0.00 0.03
6:26 am 06:26 Cloudy with Mist and Fog 52 11.1 51 10.6 97 97 SSE 14 22 29.97 1015 4 6 0.00 0.03
6:53 am 06:53 Cloudy with Mist and Fog 52 11.1 51 10.6 97 97 SSE 13 20 29.98 1015 3 5 0.00 0.03
7:00 am 07:00 Cloudy with Mist and Fog 52 11 52 11 100 100 SSE 14 22 30.00 1016 2 3 0.00 0.00
7:53 am 07:53 Cloudy with Mist and Fog 53 11.7 52 11.1 96 96 ESE 9 15 30.00 1016 3 4 0.00 0.03
8:53 am 08:53 Cloudy with Mist and Fog 54 12.2 53 11.7 97 97 SE 9 15 30.01 1016 3 4 0.00 0.00
9:17 am 09:17 Cloudy with Mist and Fog 54 12.2 53 11.7 97 97 ESE 8 13 30.03 1017 2 3 0.00 0.00
9:41 am 09:41 Cloudy with Mist and Fog 54 12.2 53 11.7 97 97 ESE 9 15 30.03 1017 3 5 0.00 0.00
9:53 am 09:53 Cloudy with Mist and Fog 55 12.8 53 11.7 93 93 ESE 9 15 30.01 1016 3 5 0.00 0.00
10:08 am 10:08 Cloudy with Mist and Fog 55 13 54 12 94 94 ESE 10 17 30.03 1017 4 6 0.00 0.00
10:53 am 10:53 Cloudy 57 13.9 54 12.2 90 90 VRB 3 6 30.03 1017 7 11 0.00 0.00
11:53 am 11:53 Cloudy 57 13.9 54 12.2 90 90 NE 7 11 30.05 1018 7 11 0.00 0.03
12:53 pm 12:53 Cloudy 59 15 54 12.2 83 83 SSE 7 11 30.05 1018 10 16 0.00 0.00
1:09 pm 13:09 Cloudy 60 15.6 54 12.2 80 80 ESE 7 11 30.03 1017 10 16 0.00 0.00
1:53 pm 13:53 Cloudy 62 16.7 55 12.8 78 78 E 8 13 30.03 1017 10 16 0.00 0.00
2:53 pm 14:53 Mostly Cloudy 65 18.3 55 12.8 70 70 ENE 9 15 30.00 1016 10 16 0.00 0.00
3:15 pm 15:15 Partly Cloudy 68 20 55 12.8 63 63 E 12 19 29.94 1014 10 16 0.00 0.00
3:53 pm 15:53 Mostly Cloudy 70 21.1 54 12.2 57 57 ESE 12 19 29.98 1015 10 16 0.00 0.00
4:53 pm 16:53 Mostly Cloudy 70 21.1 53 11.7 55 55 E 10 17 29.98 1015 10 16 0.00 0.00
5:53 pm 17:53 Mostly Sunny 70 21.1 52 11.1 53 53 E 8 13 29.98 1015 10 16 0.00 0.00
6:28 pm 18:28 Cloudy with Thunderstorms 66 19 54 12 64 64 ENE 12 19 29.94 1014 8 13 0.00 0.00
6:53 pm 18:53 Cloudy with Thunderstorms 64 17.8 55 12.8 73 73 E 7 11 30.01 1016 10 16 0.06 1.52
7:27 pm 19:27 Cloudy with Nearby Thunderstorms 64 17.8 54 12.2 70 70 NE 9 15 30.00 1016 10 16 0.00 0.03
7:53 pm 19:53 Cloudy with Nearby Thunderstorms 62 16.7 55 12.8 78 78 NNE 12 19 30.03 1017 10 16 0.01 0.25
8:09 pm 20:09 Cloudy with Thunderstorms 61 16.1 55 12.8 81 81 WSW 8 13 30.03 1017 5 8 0.04 1.02
8:20 pm 20:20 Cloudy with Strong Thunderstorms 59 15 55 13 88 88 NNW 14 22 30.03 1017 2 3 0.00 0.00
8:33 pm 20:33 Cloudy with Strong Thunderstorms 58 14.4 55 12.8 90 90 NW 14 22 30.09 1019 3 5 0.35 8.89
8:46 pm 20:46 Cloudy with Thunderstorms 59 15 55 12.8 87 87 NNW 9 15 30.03 1017 9 14 0.35 8.89
8:53 pm 20:53 Cloudy with Thunderstorms 60 15.6 55 12.8 84 84 N 7 11 30.06 1018 10 16 0.36 9.14
9:29 pm 21:29 Cloudy with Nearby Thunderstorms 58 14.4 55 12.8 90 90 NE 10 17 30.09 1019 7 11 0.01 0.25
9:50 pm 21:50 Mostly Cloudy 57 14 54 12 88 88 ENE 12 19 30.09 1019 10 16 0.01 0.25
9:53 pm 21:53 Mostly Cloudy 57 13.9 53 11.7 87 87 NE 10 17 30.08 1019 10 16 0.01 0.25
10:53 pm 22:53 Mostly Cloudy 56 13.3 53 11.7 90 90 ENE 8 13 30.07 1018 10 16 0.00 0.00
11:53 pm 23:53 Cloudy 57 13.9 52 11.1 83 83 E 7 11 30.05 1018 10 16 0.00 0.00

Powered by AerisWeather